Regional Weather Roundup
Issued by NWS Green Bay, WI

Home | Current Version | Previous Version | Graphics & Text | Print | Product List | Glossary On
Versions: 1 2 3 4 5 6 7 8 9 10 11 12 13 14 15 16 17 18 19 20 21 22 23 24 25 26 27 28 29 30 31 32 33 34 35 36 37 38 39 40 41 42 43 44 45 46 47 48 49 50
000
ASUS43 KGRB 221400
RWRGRB

NORTH-CENTRAL AND NORTHEAST WISCONSIN REGIONAL WEATHER ROUNDUP
NATIONAL WEATHER SERVICE GREEN BAY WI
900 AM CDT TUE MAY 22 2018

WIZ005-009-010>012-018-019-221500-
NORTH CENTRAL WISCONSIN

CITY           SKY/WX    TMP DP  RH WIND       PRES   REMARKS
IRONWOOD       FAIR      64  53  67 NW6       30.05S
MANITOWISH WTR CLOUDY    61  57  87 NW3       30.04F
ARBOR VITAE    CLOUDY    59  55  84 N7        30.05S
EAGLE RIVER    FAIR      59  50  73 NW3       30.04F
LAND O LAKES   FAIR      61  51  70 NW3       30.06F
RHINELANDER    CLOUDY    60  54  80 NW5       30.06R
PHILLIPS       CLOUDY    55  54  95 NE3       30.05S
ANTIGO         CLOUDY    53  53 100 CALM      30.06S
TOMAHAWK       PTSUNNY   56  52  85 CALM      30.06S
MERRILL        CLOUDY    58  54  85 CALM      30.06R
$$

WIZ013-073-221500-
NORTHEAST WISCONSIN

CITY           SKY/WX    TMP DP  RH WIND       PRES   REMARKS
IRON MOUNTAIN  FAIR      62  50  64 VRB3      30.02S
MARINETTE      NOT AVBL
$$

WIZ017-030-035>037-045-221500-
CENTRAL WISCONSIN

CITY           SKY/WX    TMP DP  RH WIND       PRES   REMARKS
MEDFORD        NOT AVBL
WAUSAU         FAIR      58  52  80 NE3       30.03F
MOSINEE        PTSUNNY   54  54 100 CALM      30.06S FOG
MARSHFIELD     PTSUNNY   57  54  89 E5        30.04R
WISC RAPIDS    CLOUDY    57  53  86 N3        30.06R
STEVENS POINT  NOT AVBL
WAUPACA        CLOUDY    58  53  84 CALM      30.06R
SHAWANO        PTSUNNY   58  53  82 E3        30.04F
CLINTONVILLE   CLOUDY    55  50  83 NE3       30.05S
WAUTOMA        CLOUDY    54  51  90 CALM      30.06S
$$

WIZ038-039-048-051-221500-
FOX VALLEY

CITY           SKY/WX    TMP DP  RH WIND       PRES   REMARKS
NWS GREEN BAY  CLOUDY    54  51  90 N3        30.06R
APPLETON       CLOUDY    54  52  94 N6        30.04R
OSHKOSH        CLOUDY    54  51  90 N6        30.05R
FOND DU LAC    CLOUDY    54  51  90 NW5       30.06R
$$

WIZ022-050-052-221500-
EAST CENTRAL WISCONSIN

CITY           SKY/WX    TMP DP  RH WIND       PRES   REMARKS
EPHRAIM        NOT AVBL
WASHINGTON ISL NOT AVBL
STURGEON BAY   CLOUDY    51  50  96 NW3       30.06S
MANITOWOC      CLOUDY    51  49  92 N6        30.06R
SHEBOYGAN      CLOUDY    51  51 100 N6        30.05R FOG
$$

LMZ563-521-522-541>543-221500-
LAKESHORE

STATION/POSITION TIME  TEMP    WIND        PRES    VSBY  WAVE
                       AIR SEA DIR/SP/G                  HT/PER
                 (UTC) (F)     (DEG/KT/KT) (MB)    (MI)  (FT/S)
SHEBOYGAN LKSHOR 1300   46     360/  8/  9 1017.3R
KEWAUNEE LKSHORE 1330   50      30/  2/  3 1017.0R
NORTHPORT PIER   1340   50     310/  4/  5 1017.6R
N MID LAKE BUOY  1340   42 38   CALM  /  2 1017.2R
SISTER BAY LKSHO 1327   54        CALM       N/A
MENOMINEE LKSHOR 1330   51      50/  1/  2 1017.4R
$$



USA.gov is the U.S. government's official web portal to all federal, state and local government web resources and services.